H1 CPF 2 NER 2024 8 14 9 227 01 glonass137 H2 1705501 9137 42939 2024 8 14 0 0 0 2024 8 17 23 45 0 900 1 1 0 0 0 1 H9 10 0 60536 0.00000 0 -7136172.246 11756013.443 -21459844.853 10 0 60536 900.00000 0 -8032246.305 9200209.885 -22372767.104 10 0 60536 1800.00000 0 -9142810.162 6636572.219 -22850247.904 10 0 60536 2700.00000 0 -10447732.959 4130924.544 -22883070.341 10 0 60536 3600.00000 0 -11915575.670 1744806.397 -22470683.836 10 0 60536 4500.00000 0 -13504788.830 -466872.090 -21621208.078 10 0 60536 5400.00000 0 -15165352.451 -2457885.937 -20351267.354 10 0 60536 6300.00000 0 -16840789.245 -4192377.274 -18685659.020 10 0 60536 7200.00000 0 -18470466.594 -5646094.716 -16656863.023 10 0 60536 8100.00000 0 -19992090.580 -6807140.137 -14304402.452 10 0 60536 9000.00000 0 -21344287.369 -7676193.549 -11674067.934 10 0 60536 9900.00000 0 -22469163.601 -8266208.779 -8817021.339 10 0 60536 10800.00000 0 -23314738.398 -8601594.823 -5788796.601 10 0 60536 11700.00000 0 -23837145.069 -8716919.341 -2648217.389 10 0 60536 12600.00000 0 -24002510.361 -8655190.668 543746.962 10 0 60536 13500.00000 0 -23788432.728 -8465792.291 3725164.792 10 0 60536 14400.00000 0 -23184998.019 -8202158.115 6834341.608 10 0 60536 15300.00000 0 -22195290.411 -7919287.383 9811012.399 10 0 60536 16200.00000 0 -20835377.542 -7671204.620 12597503.851 10 0 60536 17100.00000 0 -19133770.707 -7508471.846 15139844.366 10 0 60536 18000.00000 0 -17130382.730 -7475857.859 17388800.945 10 0 60536 18900.00000 0 -14875026.791 -7610262.511 19300823.715 10 0 60536 19800.00000 0 -12425518.272 -7938983.095 20838880.741 10 0 60536 20700.00000 0 -9845457.840 -8478395.543 21973167.925 10 0 60536 21600.00000 0 -7201786.848 -9233105.945 22681681.183 10 0 60536 22500.00000 0 -4562215.275 -10195608.344 22950640.524 10 0 60536 23400.00000 0 -1992627.543 -11346463.950 22774758.294 10 0 60536 24300.00000 0 445427.614 -12654995.374 22157346.452 10 0 60536 25200.00000 0 2697060.472 -14080468.250 21110260.534 10 0 60536 26100.00000 0 4716081.570 -15573712.388 19653680.682 10 0 60536 27000.00000 0 6466677.024 -17079116.245 17815733.009 10 0 60536 27900.00000 0 7924648.956 -18536912.717 15631957.401 10 0 60536 28800.00000 0 9078169.691 -19885661.702 13144630.766 10 0 60536 29700.00000 0 9928018.525 -21064826.172 10401957.592 10 0 60536 30600.00000 0 10487291.244 -22017333.956 7457142.424 10 0 60536 31500.00000 0 10780594.613 -22692017.387 4367361.506 10 0 60536 32400.00000 0 10842759.870 -23045827.561 1192653.153 10 0 60536 33300.00000 0 10717129.664 -23045728.883 -2005251.612 10 0 60536 34200.00000 0 10453491.208 -22670192.739 -5164134.948 10 0 60536 35100.00000 0 10105743.711 -21910225.820 -8222510.469 10 0 60536 36000.00000 0 9729399.700 -20769888.251 -11120829.217 10 0 60536 36900.00000 0 9379027.138 -19266278.312 -13802648.744 10 0 60536 37800.00000 0 9105741.865 -17428983.238 -16215741.462 10 0 60536 38700.00000 0 8954857.801 -15299018.315 -18313119.768 10 0 60536 39600.00000 0 8963795.556 -12927298.291 -20053957.182 10 0 60536 40500.00000 0 9160338.947 -10372704.914 -21404387.118 10 0 60536 41400.00000 0 9561313.959 -7699831.416 -22338163.544 10 0 60536 42300.00000 0 10171746.579 -4976498.326 -22837170.702 10 0 60536 43200.00000 0 10984535.393 -2271144.363 -22891772.273 10 0 60536 44100.00000 0 11980652.960 349798.839 -22500993.593 10 0 60536 45000.00000 0 13129867.478 2824438.960 -21672533.879 10 0 60536 45900.00000 0 14391954.251 5097757.247 -20422608.776 10 0 60536 46800.00000 0 15718345.776 7123648.350 -18775626.763 10 0 60536 47700.00000 0 17054150.795 8866581.898 -16763706.231 10 0 60536 48600.00000 0 18340457.128 10302817.984 -14426043.016 10 0 60536 49500.00000 0 19516821.250 11421127.601 -11808141.115 10 0 60536 50400.00000 0 20523839.695 12222989.823 -8960921.912 10 0 60536 51300.00000 0 21305694.055 12722259.606 -5939729.609 10 0 60536 52200.00000 0 21812562.550 12944322.210 -2803252.534 10 0 60536 53100.00000 0 22002796.806 12924771.725 387618.356 10 0 60536 54000.00000 0 21844772.509 12707671.074 3570971.361 10 0 60536 54900.00000 0 21318336.399 12343468.151 6685073.212 10 0 60536 55800.00000 0 20415789.052 11886657.009 9669562.222 10 0 60536 56700.00000 0 19142362.439 11393283.305 12466612.472 10 0 60536 57600.00000 0 17516172.286 10918399.441 15022046.882 10 0 60536 58500.00000 0 15567647.162 10513576.581 17286378.162 10 0 60536 59400.00000 0 13338457.778 10224577.992 19215758.318 10 0 60536 60300.00000 0 10879990.532 10089291.193 20772819.263 10 0 60536 61200.00000 0 8251427.985 10136005.406 21927389.197 10 0 60536 62100.00000 0 5517514.896 10382106.369 22657071.818 10 0 60536 63000.00000 0 2746101.178 10833243.218 22947677.887 10 0 60536 63900.00000 0 5562.254 11483002.642 22793501.223 10 0 60536 64800.00000 0 -2637797.827 12313104.597 22197433.940 10 0 60536 65700.00000 0 -5122254.314 13294112.356 21170918.368 10 0 60536 66600.00000 0 -7392978.013 14386628.343 19733735.978 10 0 60536 67500.00000 0 -9404064.822 15542927.056 17913636.403 10 0 60536 68400.00000 0 -11120194.990 16708957.953 15745812.520 10 0 60536 69300.00000 0 -12517853.529 17826635.503 13272230.492 10 0 60536 70200.00000 0 -13586061.132 18836321.133 10540826.470 10 0 60536 71100.00000 0 -14326585.131 19679393.222 7604584.426 10 0 60536 72000.00000 0 -14753621.640 20300796.993 4520512.261 10 0 60536 72900.00000 0 -14892962.229 20651466.394 1348535.618 10 0 60536 73800.00000 0 -14780680.316 20690514.921 -1849669.112 10 0 60536 74700.00000 0 -14461392.928 20387101.632 -5011879.502 10 0 60536 75600.00000 0 -13986171.740 19721892.073 -8076545.337 10 0 60536 76500.00000 0 -13410192.423 18688050.807 -10983995.776 10 0 60536 77400.00000 0 -12790222.690 17291722.066 -13677610.787 10 0 60536 78300.00000 0 -12182056.366 15551976.836 -16104932.985 10 0 60536 79200.00000 0 -11638003.214 13500227.318 -18218697.296 10 0 60536 80100.00000 0 -11204541.728 11179132.493 -19977757.587 10 0 60536 81000.00000 0 -10920235.087 8641040.046 -21347891.784 10 0 60536 81900.00000 0 -10813999.031 5946029.492 -22302469.558 10 0 60536 82800.00000 0 -10903795.267 3159638.203 -22822969.640 10 0 60536 83700.00000 0 -11195805.741 350365.168 -22899336.957 10 0 60536 84600.00000 0 -11684122.545 -2412943.530 -22530173.053 10 0 60536 85500.00000 0 -12350966.294 -5063718.704 -21722756.593 10 0 60537 0.00000 0 -13167423.269 -7540192.455 -20492894.220 10 0 60537 900.00000 0 -14094670.267 -9787719.761 -18864604.445 10 0 60537 1800.00000 0 -15085633.889 -11760798.191 -16869642.938 10 0 60537 2700.00000 0 -16087015.322 -13424707.213 -14546876.709 10 0 60537 3600.00000 0 -17041593.802 -14756696.846 -11941521.280 10 0 60537 4500.00000 0 -17890711.695 -15746679.113 -9104255.490 10 0 60537 5400.00000 0 -18576836.165 -16397395.033 -6090231.609 10 0 60537 6300.00000 0 -19046089.282 -16724052.172 -2958000.307 10 0 60537 7200.00000 0 -19250639.900 -16753449.894 231628.238 10 0 60537 8100.00000 0 -19150856.574 -16522630.882 3416764.762 10 0 60537 9000.00000 0 -18717130.969 -16077117.188 6535639.758 10 0 60537 9900.00000 0 -17931295.158 -15468806.303 9527797.456 10 0 60537 10800.00000 0 -16787573.347 -14753616.647 12335261.941 10 0 60537 11700.00000 0 -15293028.026 -13988982.049 14903653.221 10 0 60537 12600.00000 0 -13467481.678 -13231300.744 17183232.190 10 0 60537 13500.00000 0 -11342916.890 -12533445.927 19129855.040 10 0 60537 14400.00000 0 -8962379.177 -11942441.999 20705819.607 10 0 60537 15300.00000 0 -6378427.316 -11497403.540 21880588.175 10 0 60537 16200.00000 0 -3651194.362 -11227822.879 22631373.701 10 0 60537 17100.00000 0 -846138.432 -11152277.643 22943578.833 10 0 60537 18000.00000 0 1968425.010 -11277612.279 22811079.690 10 0 60537 18900.00000 0 4723908.708 -11598627.921 22236349.035 10 0 60537 19800.00000 0 7354051.476 -12098294.082 21230416.207 10 0 60537 20700.00000 0 9797422.034 -12748474.043 19812663.919 10 0 60537 21600.00000 0 11999726.161 -13511134.525 18010464.936 10 0 60537 22500.00000 0 13915822.223 -14339989.992 15858664.425 10 0 60537 23400.00000 0 15511361.763 -15182513.598 13398916.745 10 0 60537 24300.00000 0 16763987.057 -15982231.121 10678888.266 10 0 60537 25200.00000 0 17664035.664 -16681201.909 7751340.538 10 0 60537 26100.00000 0 18214722.348 -17222582.444 4673110.876 10 0 60537 27000.00000 0 18431790.603 -17553164.105 1504009.654 10 0 60537 27900.00000 0 18342648.344 -17625777.203 -1694344.261 10 0 60537 28800.00000 0 17985024.213 -17401458.578 -4859726.932 10 0 60537 29700.00000 0 17405201.461 -16851289.665 -7930527.502 10 0 60537 30600.00000 0 16655904.467 -15957825.692 -10846956.444 10 0 60537 31500.00000 0 15793927.938 -14716053.921 -13552219.279 10 0 60537 32400.00000 0 14877609.897 -13133838.799 -15993631.837 10 0 60537 33300.00000 0 13964256.231 -11231833.774 -18123654.396 10 0 60537 34200.00000 0 13107626.630 -9042862.211 -19900823.762 10 0 60537 35100.00000 0 12355588.928 -6610792.436 -21290564.654 10 0 60537 36000.00000 0 11748041.492 -3988953.360 -22265864.387 10 0 60537 36900.00000 0 11315191.721 -1238156.539 -22807797.716 10 0 60537 37800.00000 0 11076263.256 1575592.964 -22905891.923 10 0 60537 38700.00000 0 11038686.197 4383601.625 -22558325.429 10 0 60537 39600.00000 0 11197803.927 7117104.159 -21771956.576 10 0 60537 40500.00000 0 11537108.225 9709883.191 -20562182.556 10 0 60537 41400.00000 0 12028991.933 12100783.275 -18952631.739 10 0 60537 42300.00000 0 12635986.576 14236015.194 -16974695.883 10 0 60537 43200.00000 0 13312431.922 16071155.487 -14666911.760 10 0 60537 44100.00000 0 14006506.265 17572759.026 -12074204.614 10 0 60537 45000.00000 0 14662531.136 18719518.715 -9247008.556 10 0 60537 45900.00000 0 15223452.620 19502925.537 -6240281.387 10 0 60537 46800.00000 0 15633394.182 19927403.082 -3112433.287 10 0 60537 47700.00000 0 15840173.029 20009912.737 75809.413 10 0 60537 48600.00000 0 15797673.703 19779047.888 3262583.079 10 0 60537 49500.00000 0 15467978.788 19273656.754 6386085.202 10 0 60537 50400.00000 0 14823166.981 18541053.054 9385769.097 10 0 60537 51300.00000 0 13846702.851 17634890.734 12203511.880 10 0 60537 52200.00000 0 12534359.763 16612792.673 14784733.482 10 0 60537 53100.00000 0 10894637.042 15533833.230 17079445.570 10 0 60537 54000.00000 0 8948653.394 14455980.227 19043210.859 10 0 60537 54900.00000 0 6729520.348 13433603.233 20637995.153 10 0 60537 55800.00000 0 4281220.831 12515152.014 21832896.574 10 0 60537 56700.00000 0 1657038.285 11741101.658 22604738.749 10 0 60537 57600.00000 0 -1082399.887 11142249.713 22938517.266 10 0 60537 58500.00000 0 -3871384.996 10738436.038 22827691.173 10 0 60537 59400.00000 0 -6641603.738 10537738.609 22274314.073 10 0 60537 60300.00000 0 -9324727.917 10536178.900 21289002.005 10 0 60537 61200.00000 0 -11855011.349 10717949.420 19890738.120 10 0 60537 62100.00000 0 -14171787.518 11056154.451 18106517.017 10 0 60537 63000.00000 0 -16221765.279 11514033.596 15970834.395 10 0 60537 63900.00000 0 -17961027.719 12046617.579 13525030.670 10 0 60537 64800.00000 0 -19356651.189 12602747.410 10816499.976 10 0 60537 65700.00000 0 -20387876.955 13127372.423 7897778.793 10 0 60537 66600.00000 0 -21046786.169 13564030.520 4825531.065 10 0 60537 67500.00000 0 -21338449.584 13857405.741 1659449.070 10 0 60537 68400.00000 0 -21280545.394 13955854.492 -1538908.688 10 0 60537 69300.00000 0 -20902461.052 13813792.592 -4707319.577 10 0 60537 70200.00000 0 -20243916.918 13393840.762 -7784114.852 10 0 60537 71100.00000 0 -19353170.013 12668636.223 -10709388.975 10 0 60537 72000.00000 0 -18284874.172 11622231.997 -13426175.572 10 0 60537 72900.00000 0 -17097687.640 10251023.067 -15881566.054 10 0 60537 73800.00000 0 -15851729.899 8564158.584 -18027748.186 10 0 60537 74700.00000 0 -14605995.955 6583421.326 -19822943.549 10 0 60537 75600.00000 0 -13415837.901 4342578.171 -21232225.170 10 0 60537 76500.00000 0 -12330620.524 1886227.907 -22228199.156 10 0 60537 77400.00000 0 -11391650.057 -731806.061 -22791537.072 10 0 60537 78300.00000 0 -10630463.305 -3450471.380 -22911348.965 10 0 60537 79200.00000 0 -10067548.798 -6203787.774 -22585390.176 10 0 60537 80100.00000 0 -9711553.183 -8923357.669 -21820098.402 10 0 60537 81000.00000 0 -9559005.291 -11540982.035 -20630460.834 10 0 60537 81900.00000 0 -9594568.427 -13991272.779 -19039714.478 10 0 60537 82800.00000 0 -9791808.999 -16214153.311 -17078885.972 10 0 60537 83700.00000 0 -10114447.906 -18157143.744 -14786180.302 10 0 60537 84600.00000 0 -10518040.707 -19777336.313 -12206230.693 10 0 60537 85500.00000 0 -10952014.660 -21042979.662 -9389224.657 10 0 60538 0.00000 0 -11361975.699 -21934607.074 -6389923.829 10 0 60538 900.00000 0 -11692187.449 -22445663.356 -3266595.336 10 0 60538 1800.00000 0 -11888116.527 -22582604.581 -79879.853 10 0 60538 2700.00000 0 -11898937.025 -22364469.715 3108386.742 10 0 60538 3600.00000 0 -11679887.732 -21821942.326 6236371.125 10 0 60538 4500.00000 0 -11194382.756 -20995943.620 9243437.953 10 0 60538 5400.00000 0 -10415786.529 -19935816.837 12071319.687 10 0 60538 6300.00000 0 -9328778.384 -18697179.903 14665238.521 10 0 60538 7200.00000 0 -7930249.131 -17339536.800 16974959.209 10 0 60538 8100.00000 0 -6229691.638 -15923747.750 18955753.206 10 0 60538 9000.00000 0 -4249068.338 -14509463.807 20569256.355 10 0 60538 9900.00000 0 -2022160.268 -13152632.639 21784204.465 10 0 60538 10800.00000 0 406576.485 -11903178.944 22577033.436 10 0 60538 11700.00000 0 2983600.891 -10802955.601 22932333.105 10 0 60538 12600.00000 0 5648259.222 -9884050.310 22843146.476 10 0 60538 13500.00000 0 8335059.370 -9167517.766 22311108.711 10 0 60538 14400.00000 0 10976154.696 -8662589.892 21346422.982 10 0 60538 15300.00000 0 13503935.987 -8366396.978 19967673.019 10 0 60538 16200.00000 0 15853625.358 -8264211.470 18201475.091 10 0 60538 17100.00000 0 17965765.487 -8330204.529 16081974.951 10 0 60538 18000.00000 0 19788501.285 -8528684.066 13650198.228 10 0 60538 18900.00000 0 21279559.308 -8815762.742 10953265.610 10 0 60538 19800.00000 0 22407842.254 -9141386.116 8043486.857 10 0 60538 20700.00000 0 23154571.537 -9451635.622 4977350.491 10 0 60538 21600.00000 0 23513929.567 -9691209.058 1814428.232 10 0 60538 22500.00000 0 23493174.245 -9805973.226 -1383784.568 10 0 60538 23400.00000 0 23112220.347 -9745479.867 -4555069.615 10 0 60538 24300.00000 0 22402705.107 -9465337.186 -7637703.455 10 0 60538 25200.00000 0 21406577.288 -8929335.020 -10571667.747 10 0 60538 26100.00000 0 20174269.366 -8111232.044 -13299827.361 10 0 60538 27000.00000 0 18762530.369 -6996127.629 -15769052.295 10 0 60538 27900.00000 0 17232011.311 -5581358.637 -17931260.617 10 0 60538 28800.00000 0 15644705.706 -3876881.721 -19744361.275 10 0 60538 29700.00000 0 14061353.682 -1905123.593 -21173077.934 10 0 60538 30600.00000 0 12538919.484 299695.633 -22189637.530 10 0 60538 31500.00000 0 11128248.838 2692738.509 -22774310.149 10 0 60538 32400.00000 0 9872004.657 5220177.175 -22915789.955 10 0 60538 33300.00000 0 8802967.482 7821203.528 -22611410.168 10 0 60538 34200.00000 0 7942771.372 10430339.018 -21867188.385 10 0 60538 35100.00000 0 7301127.327 12979947.897 -20697701.929 10 0 60538 36000.00000 0 6875565.546 15402849.390 -19125796.138 10 0 60538 36900.00000 0 6651705.934 17634920.110 -17182131.794 10 0 60538 37800.00000 0 6604043.866 19617578.672 -14904580.929 10 0 60538 38700.00000 0 6697216.580 21300049.398 -12337483.149 10 0 60538 39600.00000 0 6887695.375 22641311.397 -9530777.342 10 0 60538 40500.00000 0 7125830.901 23611652.535 -6539026.014 10 0 60538 41400.00000 0 7358164.144 24193764.500 -3420351.545 10 0 60538 42300.00000 0 7529904.653 24383334.352 -235305.379 10 0 60538 43200.00000 0 7587470.715 24189109.164 2954307.614 10 0 60538 44100.00000 0 7480983.791 23632432.365 6086626.642 10 0 60538 45000.00000 0 7166611.698 22746272.438 9100931.047 10 0 60538 45900.00000 0 6608661.555 21573785.727 11938811.886 10 0 60538 46800.00000 0 5781334.233 20166474.317 14545296.700 10 0 60538 47700.00000 0 4670066.286 18582016.576 16869906.198 10 0 60538 48600.00000 0 3272402.736 16881861.222 18867623.184 10 0 60538 49500.00000 0 1598363.486 15128685.223 20499755.853 10 0 60538 50400.00000 0 -329712.733 13383821.162 21734679.684 10 0 60538 51300.00000 0 -2477841.575 11704760.622 22548444.470 10 0 60538 52200.00000 0 -4801556.794 10142836.758 22925235.512 10 0 60538 53100.00000 0 -7247517.700 8741181.694 22857680.520 10 0 60538 54000.00000 0 -9755495.332 7533042.969 22346996.480 10 0 60538 54900.00000 0 -12260656.699 6540528.465 21402973.421 10 0 60538 55800.00000 0 -14696053.955 5773831.642 20043794.824 10 0 60538 56700.00000 0 -16995216.614 5230969.164 18295697.260 10 0 60538 57600.00000 0 -19094740.318 4898041.811 16192474.644 10 0 60538 58500.00000 0 -20936765.179 4750007.905 13774835.501 10 0 60538 59400.00000 0 -22471240.830 4751937.000 11089624.377 10 0 60538 60300.00000 0 -23657883.613 4860691.361 8188921.383 10 0 60538 61200.00000 0 -24467743.661 5026964.498 5129036.532 10 0 60538 62100.00000 0 -24884315.601 5197590.617 1969417.855 10 0 60538 63000.00000 0 -24904145.505 5318026.994 -1228505.564 10 0 60538 63900.00000 0 -24536907.767 5334903.490 -4402522.811 10 0 60538 64800.00000 0 -23804948.060 5198530.188 -7490858.659 10 0 60538 65700.00000 0 -22742311.108 4865255.550 -10433384.760 10 0 60538 66600.00000 0 -21393294.084 4299573.667 -13172799.857 10 0 60538 67500.00000 0 -19810586.662 3475889.660 -15655754.943 10 0 60538 68400.00000 0 -18053076.365 2379866.877 -17833900.513 10 0 60538 69300.00000 0 -16183412.154 1009297.310 -19664834.654 10 0 60538 70200.00000 0 -14265429.252 -625542.923 -21112933.033 10 0 60538 71100.00000 0 -12361543.967 -2502069.332 -22150044.333 10 0 60538 72000.00000 0 -10530228.261 -4586089.627 -22756037.607 10 0 60538 72900.00000 0 -8823670.069 -6833000.531 -22919191.125 10 0 60538 73800.00000 0 -7285717.252 -9189431.274 -22636415.545 10 0 60538 74700.00000 0 -5950190.719 -11595265.349 -21913307.540 10 0 60538 75600.00000 0 -4839636.437 -13985956.306 -20764033.392 10 0 60538 76500.00000 0 -3964567.313 -16295041.055 -19211045.321 10 0 60538 77400.00000 0 -3323225.164 -18456745.899 -17284636.579 10 0 60538 78300.00000 0 -2901871.006 -20408576.735 -15022344.400 10 0 60538 79200.00000 0 -2675589.601 -22093785.613 -12468212.823 10 0 60538 80100.00000 0 -2609572.643 -23463611.043 -9671930.110 10 0 60538 81000.00000 0 -2660824.802 -24479199.049 -6687857.897 10 0 60538 81900.00000 0 -2780219.259 -25113125.417 -3573971.276 10 0 60538 82800.00000 0 -2914814.743 -25350456.336 -390730.744 10 0 60538 83700.00000 0 -3010335.295 -25189304.055 2800091.793 10 0 60538 84600.00000 0 -3013707.400 -24640855.354 5936610.038 10 0 60538 85500.00000 0 -2875546.917 -23728872.656 8958019.994 10 0 60539 0.00000 0 -2552490.672 -22488689.696 11805773.059 10 0 60539 900.00000 0 -2009274.095 -20965743.768 14424704.623 10 0 60539 1800.00000 0 -1220467.746 -19213708.098 16764093.036 10 0 60539 2700.00000 0 -171798.983 -17292300.285 18778634.309 10 0 60539 3600.00000 0 1138996.728 -15264859.663 20429310.704 10 0 60539 4500.00000 0 2701831.284 -13195793.480 21684138.887 10 0 60539 5400.00000 0 4494441.509 -11147997.581 22518783.819 10 0 60539 6300.00000 0 6483082.694 -9180357.980 22917027.273 10 0 60539 7200.00000 0 8623710.658 -7345436.191 22871082.404 10 0 60539 8100.00000 0 10863604.874 -5687433.548 22381748.479 10 0 60539 9000.00000 0 13143366.941 -4240518.217 21458402.586 10 0 60539 9900.00000 0 15399213.045 -3027583.795 20118827.905 10 0 60539 10800.00000 0 17565466.700 -2059490.624 18388881.005 10 0 60539 11700.00000 0 19577149.330 -1334821.168 16302003.422 10 0 60539 12600.00000 0 21372561.739 -840159.518 13898585.745 10 0 60539 13500.00000 0 22895749.271 -550883.319 11225195.266 10 0 60539 14400.00000 0 24098747.765 -432434.911 8333681.013 10 0 60539 15300.00000 0 24943515.923 -442018.197 5280172.718 10 0 60539 16200.00000 0 25403472.439 -530649.584 2123992.622 10 0 60539 17100.00000 0 25464572.408 -645475.998 -1073498.850 10 0 60539 18000.00000 0 25125876.801 -732261.311 -4250100.794 10 0 60539 18900.00000 0 24399590.030 -737934.979 -7343988.972 10 0 60539 19800.00000 0 23310563.233 -613093.720 -10294927.854 10 0 60539 20700.00000 0 21895283.609 -314348.797 -13045452.836 10 0 60539 21600.00000 0 20200392.060 193582.072 -15541998.582 10 0 60539 22500.00000 0 18280791.513 936128.355 -17735950.535 10 0 60539 23400.00000 0 16197425.697 1927541.327 -19584598.283 10 0 60539 24300.00000 0 14014822.072 3170047.084 -21051971.663 10 0 60539 25200.00000 0 11798502.432 4653514.958 -22109543.091 10 0 60539 26100.00000 0 9612370.073 6355656.325 -22736782.352 10 0 60539 27000.00000 0 7516183.131 8242746.258 -22921553.344 10 0 60539 27900.00000 0 5563219.654 10270838.365 -22660345.392 10 0 60539 28800.00000 0 3798231.628 12387422.239 -21958335.129 10 0 60539 29700.00000 0 2255772.651 14533454.357 -20829278.301 10 0 60539 30600.00000 0 958967.947 16645677.616 -19295234.094 10 0 60539 31500.00000 0 -81223.322 18659132.538 -17386127.869 10 0 60539 32400.00000 0 -866224.389 20509755.224 -15139161.250 10 0 60539 33300.00000 0 -1409528.757 22136953.569 -12598081.435 10 0 60539 34200.00000 0 -1735874.748 23486054.142 -9812324.340 10 0 60539 35100.00000 0 -1879943.383 24510517.733 -6836048.594 10 0 60539 36000.00000 0 -1884636.254 25173831.253 -3727079.476 10 0 60539 36900.00000 0 -1799007.503 25450997.371 -545783.687 10 0 60539 37800.00000 0 -1675938.432 25329560.196 2646102.942 10 0 60539 38700.00000 0 -1569653.857 24810124.813 5786671.878 10 0 60539 39600.00000 0 -1533185.660 23906349.663 8815039.142 10 0 60539 40500.00000 0 -1615890.982 22644412.826 11672520.319 10 0 60539 41400.00000 0 -1861129.874 21061975.039 14303760.889 10 0 60539 42300.00000 0 -2304200.353 19206683.167 16657800.490 10 0 60539 43200.00000 0 -2970617.774 17134276.651 18689051.254 10 0 60539 44100.00000 0 -3874811.030 14906375.653 20358172.159 10 0 60539 45000.00000 0 -5019290.597 12588042.506 21632823.395 10 0 60539 45900.00000 0 -6394323.936 10245217.105 22488287.061 10 0 60539 46800.00000 0 -7978132.772 7942131.796 22907942.942 10 0 60539 47700.00000 0 -9737605.263 5738812.058 22883590.694 10 0 60539 48600.00000 0 -11629494.866 3688765.541 22415612.386 10 0 60539 49500.00000 0 -13602057.645 1836954.330 21512972.097 10 0 60539 50400.00000 0 -15597061.510 218133.751 20193052.043 10 0 60539 51300.00000 0 -17552085.333 -1144374.004 18481327.520 10 0 60539 52200.00000 0 -19403013.541 -2239420.871 16410885.835 10 0 60539 53100.00000 0 -21086623.188 -3068257.979 14021797.291 10 0 60539 54000.00000 0 -22543156.117 -3644235.527 11360349.143 10 0 60539 54900.00000 0 -23718768.825 -3991990.185 8478156.230 10 0 60539 55800.00000 0 -24567757.143 -4146154.184 5431164.687 10 0 60539 56700.00000 0 -25054461.716 -4149640.634 2278567.551 10 0 60539 57600.00000 0 -25154773.271 -4051577.705 -918346.847 10 0 60539 58500.00000 0 -24857173.156 -3904979.534 -4097390.979 10 0 60539 59400.00000 0 -24163264.147 -3764253.185 -7196694.863 10 0 60539 60300.00000 0 -23087768.003 -3682648.314 -10155918.885 10 0 60539 61200.00000 0 -21657988.909 -3709758.849 -12917437.995 10 0 60539 62100.00000 0 -19912764.718 -3889183.945 -15427473.171 10 0 60539 63000.00000 0 -17900949.681 -4256448.755 -17637147.128 10 0 60539 63900.00000 0 -15679492.369 -4837274.452 -19503442.860 10 0 60539 64800.00000 0 -13311189.535 -5646271.973 -20990045.815 10 0 60539 65700.00000 0 -10862210.360 -6686115.834 -22068053.028 10 0 60539 66600.00000 0 -8399494.982 -7947233.793 -22716535.350 10 0 60539 67500.00000 0 -5988136.303 -9408026.209 -22922942.067 10 0 60539 68400.00000 0 -3688854.380 -11035606.376 -22683340.416 10 0 60539 69300.00000 0 -1555668.581 -12787031.089 -22002485.783 10 0 60539 70200.00000 0 366136.025 -14610969.965 -20893721.795 10 0 60539 71100.00000 0 2041664.207 -16449743.591 -19378712.726 10 0 60539 72000.00000 0 3447620.259 -18241645.039 -17487013.945 10 0 60539 72900.00000 0 4573023.019 -19923447.440 -15255489.214 10 0 60539 73800.00000 0 5419398.227 -21432992.531 -12727586.542 10 0 60539 74700.00000 0 6000442.255 -22711751.694 -9952487.103 10 0 60539 75600.00000 0 6341173.418 -23707252.282 -6984144.106 10 0 60539 76500.00000 0 6476608.588 -24375267.735 -3880230.633 10 0 60539 77400.00000 0 6450022.615 -24681679.934 -701017.242 10 0 60539 78300.00000 0 6310865.467 -24603936.173 2491798.585 10 0 60539 79200.00000 0 6112426.146 -24132040.124 5636288.287 10 0 60539 80100.00000 0 5909342.823 -23269035.791 8671490.010 10 0 60539 81000.00000 0 5755064.768 -22030964.645 11538585.274 10 0 60539 81900.00000 0 5699373.387 -20446298.107 14182032.023 10 0 60539 82800.00000 0 5786066.885 -18554869.277 16550632.607 10 0 60539 83700.00000 0 6050905.972 -16406348.464 18598516.751 10 0 60539 84600.00000 0 6519906.949 -14058325.730 20286021.373 10 0 60539 85500.00000 0 7208053.922 -11574079.684 21580451.126 99